User: anonymous   Login
Location: Unspecified
(0.0000°N, 0.0000°E)
Time: 09:45:39
(UTC+02:00)
Language:

Cosmos 540 Rocket - Orbit

View from above orbital plane
View from above orbital plane
View from above satellite
View from above satellite

Ground track
Ground track

The orbit data is extracted from the following two-line orbital elements,

1 06324U 72104B   16208.55571794  .00000018  00000-0  13221-4 0  9991
2 06324  74.0780 349.4010 0009618 218.0152 142.0327 14.43312564288591
Epoch (UTC): 26 July 2016 13:20:14
Eccentricity: 0.0009618
inclination: 74.0780°
perigee height: 741 km
apogee height: 754 km
right ascension of ascending node: 349.4010°
argument of perigee: 218.0152°
revolutions per day: 14.43312564
mean anomaly at epoch: 142.0327°
orbit number at epoch: 28859

The dashed part of the orbit path shows where the satellite is in the earth's shadow,  

DLR